Location: Moscow
(55.7500°N, 37.5830°E)
Time: 14:58:40
(UTC+03:00)

N. Korean satellite - Visible Passes

Search period start: 23 October 2021 00:00
Search period end: 02 November 2021 00:00
Orbit: 450 x 495 km, 97.3° (Epoch: 22 October)

Date Brightness Start Highest point End Pass type
(mag) Time Alt. Az. Time Alt. Az. Time Alt. Az.
23 Oct 7.1 05:52:07 10° NNE 05:55:48 65° ESE 05:59:25 10° S visible
23 Oct 10.1 18:08:43 10° WSW 18:10:31 13° W 18:12:21 10° WNW visible
24 Oct 8.5 05:24:12 10° NNE 05:27:35 34° E 05:30:56 10° SSE visible
25 Oct 9.5 04:56:36 10° NE 04:59:16 19° E 05:01:55 10° SE visible
25 Oct 6.7 06:29:11 10° N 06:32:47 52° WNW 06:36:20 10° SSW visible
26 Oct 10.2 04:30:07 10° ENE 04:30:50 10° E 04:31:33 10° E visible
26 Oct 6.7 06:01:01 10° NNE 06:04:42 81° ESE 06:08:20 10° SSW visible
26 Oct 10.4 18:18:27 10° WSW 18:19:31 11° W 18:20:35 10° WNW visible
27 Oct 8.0 05:33:00 10° NNE 05:36:30 41° E 05:39:58 10° S visible
27 Oct 9.8 17:48:22 10° SW 17:51:05 20° W 17:53:50 10° NW visible
28 Oct 9.2 05:05:15 10° NE 05:08:12 22° E 05:11:07 10° SE visible
28 Oct 7.0 06:38:06 10° N 06:41:36 43° WNW 06:45:03 10° SW visible
29 Oct 10.0 04:38:06 10° ENE 04:39:46 13° E 04:41:26 10° ESE visible
29 Oct 6.5 06:09:50 10° NNE 06:13:32 82° WNW 06:17:09 10° SSW visible
30 Oct 7.5 05:41:45 10° NNE 05:45:20 51° E 05:48:52 10° S visible
30 Oct 9.9 17:57:32 10° SW 17:59:57 17° W 18:02:23 10° NW visible
31 Oct 8.9 05:13:53 10° NE 05:17:02 27° E 05:20:09 10° SSE visible
31 Oct 7.2 06:46:58 10° N 06:50:20 35° WNW 06:53:39 10° SW visible
31 Oct 9.0 17:28:19 10° SSW 17:31:33 30° W 17:34:49 10° NNW visible
01 Nov 9.8 04:46:26 10° NE 04:48:38 15° E 04:50:47 10° SE visible
01 Nov 6.5 06:18:37 10° N 06:22:15 67° WNW 06:25:50 10° SSW visible
